• In Netherlands
  • List of Countries
  • For 7 days
  • Water Temperature
  • Satellite Maps
  • Weather Map
  • Weather Widgets
  • user-avatar
    Login

    Hourly Weather Igls

    Today, 19 November, Sunday

    Time Temperature Precipitation Wind Pressure Humidity
    00:00 -3°C° 0 mm 2 mps 684 mmHg 78%
    01:00 -3°C° 0 mm 2 mps 683 mmHg 76%
    02:00 -2°C° 0.1 mm 2 mps 683 mmHg 75%
    03:00 -2°C° 0.1 mm 2 mps 682 mmHg 74%
    04:00 -1°C° 0.1 mm 2 mps 682 mmHg 73%
    05:00 -1°C° 0.6 mm 2 mps 682 mmHg 79%
    06:00 -1°C° 0.6 mm 2 mps 681 mmHg 85%
    07:00 -1°C° 0.6 mm 2 mps 681 mmHg 91%
    08:00 +1°C° 0.8 mm 2 mps 681 mmHg 91%
    09:00 +1°C° 0.8 mm 2 mps 681 mmHg 92%
    10:00 +2°C° 0.8 mm 2 mps 682 mmHg 92%
    11:00 +1°C° 0.5 mm 3 mps 682 mmHg 91%
    12:00 +1°C° 0.5 mm 3 mps 682 mmHg 89%
    13:00 +1°C° 0.5 mm 3 mps 682 mmHg 87%
    14:00 +1°C° 0.6 mm 3 mps 682 mmHg 89%
    15:00 0°C° 0.6 mm 3 mps 682 mmHg 91%
    16:00 0°C° 0.6 mm 3 mps 682 mmHg 92%
    17:00 +1°C° 0.4 mm 2 mps 683 mmHg 93%
    18:00 -1°C° 0.4 mm 2 mps 683 mmHg 93%
    19:00 -1°C° 0.4 mm 2 mps 684 mmHg 94%
    20:00 -2°C° 0.2 mm 2 mps 684 mmHg 94%
    21:00 -2°C° 0.2 mm 2 mps 685 mmHg 94%
    22:00 -2°C° 0.2 mm 2 mps 685 mmHg 94%
    23:00 -3°C° 0.1 mm 2 mps 685 mmHg 94%

    Tomorrow, 20 November, Monday

    Time Temperature Precipitation Wind Pressure Humidity
    00:00 -3°C° 0.1 mm 2 mps 685 mmHg 94%
    01:00 -3°C° 0.1 mm 2 mps 686 mmHg 94%
    02:00 -4°C° 0 mm 2 mps 686 mmHg 94%
    03:00 -4°C° 0 mm 2 mps 686 mmHg 94%
    04:00 -5°C° 0 mm 2 mps 686 mmHg 93%
    05:00 -5°C° 0 mm 2 mps 686 mmHg 91%
    06:00 -6°C° 0 mm 2 mps 686 mmHg 89%
    07:00 -6°C° 0 mm 2 mps 686 mmHg 87%
    08:00 -4°C° 0 mm 2 mps 686 mmHg 83%
    09:00 -2°C° 0 mm 2 mps 686 mmHg 79%
    10:00 +3°C° 0 mm 1 mps 687 mmHg 75%
    11:00 +3°C° 0 mm 1 mps 687 mmHg 74%
    12:00 +4°C° 0 mm 1 mps 686 mmHg 74%
    13:00 +5°C° 0 mm 1 mps 686 mmHg 74%
    14:00 +5°C° 0.1 mm 1 mps 686 mmHg 78%
    15:00 +4°C° 0.1 mm 1 mps 685 mmHg 81%
    16:00 +3°C° 0.1 mm 2 mps 685 mmHg 85%
    17:00 +3°C° 0.2 mm 2 mps 685 mmHg 86%
    18:00 +3°C° 0.2 mm 2 mps 685 mmHg 87%
    19:00 +2°C° 0.2 mm 2 mps 685 mmHg 88%
    20:00 +2°C° 0 mm 2 mps 685 mmHg 87%
    21:00 +2°C° 0 mm 2 mps 685 mmHg 86%
    22:00 +2°C° 0 mm 2 mps 684 mmHg 86%
    23:00 +2°C° 0 mm 2 mps 684 mmHg 85%

    Day after tomorrow, 21 November, Tuesday

    Time Temperature Precipitation Wind Pressure Humidity
    00:00 +2°C° 0 mm 2 mps 684 mmHg 84%
    01:00 +3°C° 0 mm 2 mps 684 mmHg 82%
    02:00 +3°C° 0.1 mm 2 mps 684 mmHg 83%
    03:00 +3°C° 0.1 mm 2 mps 684 mmHg 83%
    04:00 +3°C° 0.1 mm 2 mps 684 mmHg 83%
    05:00 +3°C° 0.2 mm 2 mps 684 mmHg 84%
    06:00 +3°C° 0.2 mm 2 mps 684 mmHg 85%
    07:00 +3°C° 0.2 mm 2 mps 684 mmHg 85%
    08:00 +4°C° 0.1 mm 2 mps 684 mmHg 86%
    09:00 +5°C° 0.1 mm 2 mps 685 mmHg 87%
    10:00 +6°C° 0.1 mm 2 mps 685 mmHg 88%
    11:00 +6°C° 0.1 mm 2 mps 685 mmHg 89%
    12:00 +7°C° 0.1 mm 2 mps 684 mmHg 90%
    13:00 +8°C° 0.1 mm 2 mps 684 mmHg 91%
    14:00 +7°C° 0 mm 2 mps 684 mmHg 90%
    15:00 +7°C° 0 mm 2 mps 684 mmHg 90%
    16:00 +7°C° 0 mm 1 mps 684 mmHg 89%
    17:00 +6°C° 0 mm 1 mps 684 mmHg 88%
    18:00 +5°C° 0 mm 1 mps 684 mmHg 87%
    19:00 +4°C° 0 mm 2 mps 684 mmHg 86%
    20:00 +4°C° 0 mm 1 mps 684 mmHg 85%
    21:00 +4°C° 0 mm 1 mps 684 mmHg 85%
    22:00 +4°C° 0 mm 1 mps 685 mmHg 84%
    23:00 +4°C° 0 mm 1 mps 684 mmHg 83%

    22 November, Wednesday

    Time Temperature Precipitation Wind Pressure Humidity
    00:00 +3°C° 0 mm 2 mps 684 mmHg 82%
    01:00 +3°C° 0 mm 2 mps 684 mmHg 81%
    02:00 +3°C° 0 mm 2 mps 684 mmHg 80%
    03:00 +3°C° 0 mm 2 mps 684 mmHg 80%
    04:00 +3°C° 0 mm 2 mps 684 mmHg 79%
    05:00 +3°C° 0 mm 2 mps 684 mmHg 78%
    06:00 +3°C° 0 mm 2 mps 684 mmHg 77%
    07:00 +2°C° 0 mm 2 mps 684 mmHg 77%
    08:00 +4°C° 0 mm 2 mps 684 mmHg 78%
    09:00 +6°C° 0 mm 2 mps 685 mmHg 79%
    10:00 +8°C° 0 mm 1 mps 685 mmHg 80%
    11:00 +9°C° 0 mm 1 mps 685 mmHg 83%
    12:00 +10°C° 0 mm 1 mps 685 mmHg 86%
    13:00 +11°C° 0 mm 1 mps 684 mmHg 89%
    14:00 +10°C° 0 mm 1 mps 684 mmHg 86%
    15:00 +9°C° 0 mm 1 mps 684 mmHg 83%
    16:00 +7°C° 0 mm 2 mps 684 mmHg 80%
    17:00 +6°C° 0 mm 2 mps 684 mmHg 79%
    18:00 +5°C° 0 mm 2 mps 684 mmHg 78%
    19:00 +4°C° 0 mm 2 mps 684 mmHg 77%
    20:00 +4°C° 0 mm 2 mps 684 mmHg 77%
    21:00 +3°C° 0 mm 2 mps 684 mmHg 77%
    22:00 +3°C° 0 mm 2 mps 684 mmHg 77%
    23:00 +2°C° 0 mm 3 mps 684 mmHg 77%

    23 November, Thursday

    Time Temperature Precipitation Wind Pressure Humidity
    00:00 +2°C° 0 mm 3 mps 684 mmHg 77%
    01:00 +2°C° 0 mm 3 mps 684 mmHg 77%
    02:00 +2°C° 0 mm 3 mps 684 mmHg 77%
    03:00 +3°C° 0 mm 2 mps 684 mmHg 76%
    04:00 +3°C° 0 mm 2 mps 684 mmHg 76%
    05:00 +3°C° 0 mm 2 mps 684 mmHg 75%
    06:00 +3°C° 0 mm 2 mps 685 mmHg 74%
    07:00 +3°C° 0 mm 2 mps 685 mmHg 73%
    08:00 +4°C° 0 mm 2 mps 685 mmHg 74%
    09:00 +6°C° 0 mm 2 mps 686 mmHg 74%
    10:00 +7°C° 0 mm 2 mps 686 mmHg 75%
    11:00 +8°C° 0 mm 2 mps 686 mmHg 79%
    12:00 +10°C° 0 mm 1 mps 686 mmHg 82%
    13:00 +12°C° 0 mm 1 mps 686 mmHg 85%
    14:00 +10°C° 0 mm 1 mps 686 mmHg 82%
    15:00 +9°C° 0 mm 1 mps 686 mmHg 79%
    16:00 +8°C° 0 mm 1 mps 686 mmHg 76%
    17:00 +7°C° 0 mm 1 mps 686 mmHg 75%
    18:00 +6°C° 0 mm 1 mps 687 mmHg 74%
    19:00 +4°C° 0 mm 2 mps 687 mmHg 73%
    20:00 +4°C° 0 mm 2 mps 687 mmHg 72%
    21:00 +4°C° 0 mm 2 mps 688 mmHg 70%
    22:00 +4°C° 0 mm 2 mps 688 mmHg 69%
    23:00 +4°C° 0 mm 2 mps 688 mmHg 69%

    24 November, Friday

    Time Temperature Precipitation Wind Pressure Humidity
    00:00 +4°C° 0 mm 2 mps 688 mmHg 68%
    01:00 +4°C° 0 mm 2 mps 688 mmHg 68%
    02:00 +3°C° 0 mm 2 mps 688 mmHg 68%
    03:00 +3°C° 0 mm 2 mps 688 mmHg 69%
    04:00 +3°C° 0 mm 2 mps 687 mmHg 69%
    05:00 +3°C° 0 mm 2 mps 688 mmHg 70%
    06:00 +3°C° 0 mm 2 mps 688 mmHg 71%
    07:00 +3°C° 0 mm 2 mps 688 mmHg 72%
    08:00 +4°C° 0 mm 2 mps 688 mmHg 73%
    09:00 +6°C° 0 mm 2 mps 688 mmHg 74%
    10:00 +7°C° 0 mm 2 mps 688 mmHg 75%
    11:00 +8°C° 0 mm 2 mps 688 mmHg 76%
    12:00 +9°C° 0 mm 2 mps 687 mmHg 78%
    13:00 +10°C° 0 mm 2 mps 687 mmHg 80%
    14:00 +9°C° 0 mm 2 mps 687 mmHg 79%
    15:00 +8°C° 0 mm 2 mps 687 mmHg 78%
    16:00 +7°C° 0 mm 2 mps 687 mmHg 77%
    17:00 +6°C° 0 mm 2 mps 687 mmHg 76%
    18:00 +6°C° 0 mm 2 mps 687 mmHg 74%
    19:00 +5°C° 0 mm 2 mps 687 mmHg 73%
    20:00 +5°C° 0 mm 2 mps 687 mmHg 72%
    21:00 +4°C° 0 mm 2 mps 687 mmHg 71%
    22:00 +4°C° 0 mm 2 mps 687 mmHg 70%
    23:00 +4°C° 0 mm 2 mps 687 mmHg 69%
    Show more